User: anonymous   Login
Location: La Fredeussais
(48.1780°N, 1.3980°W)
Time: 05:44:26
(UTC+00:00)
Language:

EO-88 - Orbit

View from above orbital plane
View from above orbital plane
View from above satellite
View from above satellite

Ground track
Ground track

The orbit data is extracted from the following two-line orbital elements,

1 42017U 17008BX  21290.12702184  .00004062  00000-0  14664-3 0  9995
2 42017  97.3045 355.5261 0006856  49.1707 311.0127 15.29033886259842
Epoch (UTC): 17 October 2021 03:02:54
Eccentricity: 0.0006856
inclination: 97.3045°
perigee height: 474 km
apogee height: 483 km
right ascension of ascending node: 355.5261°
argument of perigee: 49.1707°
revolutions per day: 15.29033886
mean anomaly at epoch: 311.0127°
orbit number at epoch: 25984

The dashed part of the orbit path shows where the satellite is in the earth's shadow,  

DLR